Location: Krakow
(50.0212°N, 19.9423°E)
Time: 12:35:48
(UTC+02:00)

NOAA 18 - Pass Details

Date: 28 April 2025
Orbit: 837 x 857 km, 98.8° (Epoch: 14 May)

Event Time Altitude Azimuth Distance (km) Brightness Sun altitude
Exits shadow 22:52:36 42° 178° (S) 1,209 5.6 -21.5°
Maximum altitude 22:54:33 77° 255° (WSW) 884 5.2 -21.7°
Drops below altitude 10° 23:00:08 10° 342° (NNW) 2,503 8.8 -22.1°
Sets 23:02:31 0° 344° (NNW) 3,443 9.8 -22.2°
